EW6239 Weather Reports


Display with metric or nautical units.
time (UTC)temp
F
wind
direction
speed
MPH
gust
MPH
rain 1hr
in
rain 24hr
in
rain mn
in
humidity
%
barometer
mb
20260510044516 52 225 1.0 3.0 0.00 0.02 0.00 91 997.4
20260510043516 52 225 1.0 3.0 0.00 0.02 0.00 90 997.2
20260510042536 52 225 1.0 3.0 0.00 0.02 0.00 91 997.0
20260510041516 53 225 1.0 3.0 0.00 0.02 0.00 90 996.8
20260510040516 53 225 1.0 4.0 0.00 0.02 0.00 90 996.7
20260510035517 53 225 1.0 3.0 0.01 0.02 0.02 90 996.5
20260510034517 53 225 2.0 5.0 0.01 0.02 0.02 90 996.7
20260510033517 54 203 2.0 5.0 0.01 0.02 0.02 90 996.8
20260510032517 54 225 1.0 3.0 0.01 0.02 0.02 90 996.8
20260510031517 54 225 2.0 5.0 0.02 0.02 0.02 90 996.8
20260510030517 54 225 1.0 4.0 0.02 0.02 0.02 90 996.9
20260510025517 54 225 2.0 7.0 0.02 0.02 0.02 89 996.8
20260510024516 54 225 2.0 5.0 0.02 0.02 0.02 89 996.5
20260510023517 54 225 3.0 8.0 0.02 0.02 0.02 88 996.5
20260510022517 55 225 3.0 7.0 0.02 0.02 0.02 86 996.7
20260510021517 56 225 4.0 9.0 0.01 0.01 0.01 83 996.4
20260510020517 57 225 3.0 8.0 0.00 0.00 0.00 79 996.2
20260510015517 58 225 4.0 8.0 0.00 0.00 0.00 72 996.0
20260510014517 59 203 4.0 7.0 0.00 0.00 0.00 66 995.8
20260510013517 59 203 4.0 9.0 0.00 0.00 0.00 64 995.9
20260510012517 59 225 4.0 7.0 0.00 0.00 0.00 63 996.1
20260510011517 59 203 3.0 6.0 0.00 0.00 0.00 61 996.1
20260510010517 59 225 3.0 6.0 0.00 0.00 0.00 60 996.1
20260510005517 59 203 3.0 6.0 0.00 0.00 0.00 58 996.1
20260510004517 60 225 3.0 5.0 0.00 0.00 0.00 57 996.1
20260510003517 60 203 2.0 6.0 0.00 0.00 0.00 55 996.2
20260510002517 60 203 3.0 8.0 0.00 0.00 0.00 53 996.3
20260510001537 60 203 3.0 10.0 0.00 0.00 0.00 53 996.3
20260510000516 61 225 2.0 4.0 0.00 0.00 0.00 52 996.5
20260509235516 61 225 3.0 7.0 0.00 0.00 0.00 50 996.7
20260509234517 61 203 3.0 5.0 0.00 0.00 0.00 48 996.7
20260509233516 61 225 3.0 8.0 0.00 0.00 0.00 46 996.8
20260509232516 61 203 3.0 7.0 0.00 0.00 0.00 45 997.0
20260509231516 62 248 2.0 5.0 0.00 0.00 0.00 46 997.0
20260509230516 62 225 3.0 12.0 0.00 0.00 0.00 46 996.9
20260509225516 62 203 2.0 6.0 0.00 0.00 0.00 46 997.0
20260509224516 63 225 2.0 7.0 0.00 0.00 0.00 47 996.9
20260509223516 63 203 2.0 7.0 0.00 0.00 0.00 48 996.8
20260509222516 63 225 3.0 7.0 0.00 0.00 0.00 46 996.7
20260509221516 63 225 3.0 6.0 0.00 0.00 0.00 45 996.6
20260509220516 64 225 2.0 5.0 0.00 0.00 0.00 44 996.7
20260509215516 64 225 3.0 9.0 0.00 0.00 0.00 42 996.5
20260509214516 64 225 3.0 7.0 0.00 0.00 0.00 43 996.5
20260509213516 65 225 3.0 7.0 0.00 0.00 0.00 41 996.8
20260509212516 65 225 4.0 10.0 0.00 0.00 0.00 43 996.7
20260509211516 66 225 5.0 11.0 0.00 0.00 0.00 41 996.8
20260509210516 66 225 2.0 7.0 0.00 0.00 0.00 41 996.9
20260509205516 66 225 6.0 14.0 0.00 0.00 0.00 42 996.8
20260509204516 66 225 4.0 13.0 0.00 0.00 0.00 41 997.0
20260509203516 66 225 4.0 11.0 0.00 0.00 0.00 41 997.0
20260509202516 66 203 6.0 15.0 0.00 0.00 0.00 38 997.0
20260509201516 66 225 5.0 10.0 0.00 0.00 0.00 37 997.2
20260509200518 67 225 4.0 11.0 0.00 0.00 0.00 35 997.3
20260509195518 67 225 6.0 15.0 0.00 0.00 0.00 33 997.3
20260509194516 67 225 5.0 12.0 0.00 0.00 0.00 31 997.2
20260509193518 68 225 5.0 10.0 0.00 0.00 0.00 29 997.3
20260509192518 68 225 5.0 12.0 0.00 0.00 0.00 33 997.6
20260509191518 68 225 5.0 14.0 0.00 0.00 0.00 32 997.7
20260509190518 67 203 5.0 12.0 0.00 0.00 0.00 32 997.7
20260509185518 67 225 5.0 11.0 0.00 0.00 0.00 29 997.9
20260509184518 67 225 5.0 9.0 0.00 0.00 0.00 30 998.0
20260509183518 67 203 6.0 16.0 0.00 0.00 0.00 29 998.2
20260509182538 67 180 5.0 10.0 0.00 0.00 0.00 30 998.5
20260509181518 67 180 5.0 12.0 0.00 0.00 0.00 30 998.7
20260509180538 68 248 4.0 10.0 0.00 0.00 0.00 32 998.9
20260509175518 68 203 5.0 15.0 0.00 0.00 0.00 30 999.0
20260509174518 68 225 7.0 16.0 0.00 0.00 0.00 30 999.2
20260509173518 68 225 2.0 7.0 0.00 0.00 0.00 33 999.2
20260509172518 67 225 4.0 10.0 0.00 0.00 0.00 35 999.3
20260509171518 67 225 4.0 9.0 0.00 0.00 0.00 30 999.2
20260509170518 67 225 6.0 11.0 0.00 0.00 0.00 30 999.6
20260509165518 67 225 4.0 7.0 0.00 0.00 0.00 34 999.8
20260509164517 67 225 3.0 10.0 0.00 0.00 0.00 33 999.9
20260509163518 67 225 5.0 13.0 0.00 0.00 0.00 33 1000.2
20260509162518 67 203 3.0 7.0 0.00 0.00 0.00 33 1000.5
20260509161558 66 225 4.0 9.0 0.00 0.00 0.00 33 1000.6
20260509160517 66 225 6.0 14.0 0.00 0.00 0.00 32 1000.6
20260509155518 66 225 3.0 8.0 0.00 0.00 0.00 36 1000.9
20260509154517 65 225 5.0 13.0 0.00 0.00 0.00 35 1001.0
20260509153518 65 225 5.0 11.0 0.00 0.00 0.00 38 1001.3
20260509152538 65 225 3.0 9.0 0.00 0.00 0.00 37 1001.6
20260509151518 65 225 4.0 10.0 0.00 0.00 0.00 37 1001.7
20260509150518 64 225 4.0 10.0 0.00 0.00 0.00 39 1001.8
20260509145517 64 225 2.0 6.0 0.00 0.00 0.00 41 1002.0
20260509144518 63 225 2.0 4.0 0.00 0.00 0.00 41 1002.0
20260509143518 63 225 5.0 10.0 0.00 0.00 0.00 42 1002.1
20260509142558 62 225 3.0 5.0 0.00 0.00 0.00 47 1002.1
20260509141517 61 225 3.0 9.0 0.00 0.00 0.00 45 1002.3
20260509140517 60 225 3.0 8.0 0.00 0.00 0.00 49 1002.3
20260509135518 60 225 3.0 6.0 0.00 0.00 0.00 49 1002.3
20260509134517 59 225 3.0 8.0 0.00 0.00 0.00 49 1002.3
20260509133517 57 203 3.0 5.0 0.00 0.00 0.00 51 1002.4
20260509132517 56 225 2.0 5.0 0.00 0.00 0.00 53 1002.5
20260509131517 54 203 3.0 6.0 0.00 0.00 0.00 54 1002.7
20260509130517 53 203 2.0 4.0 0.00 0.00 0.00 56 1002.8
20260509125517 52 225 3.0 6.0 0.00 0.00 0.00 56 1002.9
20260509124517 50 203 2.0 8.0 0.00 0.00 0.00 61 1003.0
20260509123517 49 180 1.0 3.0 0.00 0.00 0.00 63 1003.0
20260509122517 48 225 2.0 5.0 0.00 0.00 0.00 64 1003.1
20260509121517 46 225 1.0 5.0 0.00 0.00 0.00 68 1003.1
20260509120517 45 225 2.0 4.0 0.00 0.00 0.00 72 1003.0
20260509115517 44 225 2.0 4.0 0.00 0.00 0.00 73 1003.0
20260509114517 42 225 2.0 4.0 0.00 0.00 0.00 76 1003.0
20260509113517 41 225 2.0 4.0 0.00 0.00 0.00 80 1002.9
20260509112517 40 225 1.0 2.0 0.00 0.00 0.00 82 1002.9
20260509111517 39 225 1.0 4.0 0.00 0.00 0.00 82 1002.8
20260509110517 39 225 1.0 3.0 0.00 0.00 0.00 82 1002.7
20260509105517 38 225 1.0 2.0 0.00 0.00 0.00 82 1002.6
20260509104517 38 225 2.0 3.0 0.00 0.00 0.00 83 1002.5
20260509103517 37 225 2.0 5.0 0.00 0.00 0.00 84 1002.4
20260509102537 37 225 2.0 3.0 0.00 0.00 0.00 85 1002.5
20260509101517 36 225 1.0 3.0 0.00 0.00 0.00 84 1002.4
20260509100517 36 0.0 0.0 0.00 0.00 0.00 84 1002.5
20260509095517 36 0.0 0.0 0.00 0.00 0.00 83 1002.5
20260509094517 36 0.0 0.0 0.00 0.00 0.00 82 1002.4
20260509093517 37 0.0 0.0 0.00 0.00 0.00 81 1002.4
20260509092517 37 0.0 0.0 0.00 0.00 0.00 81 1002.4
20260509091517 37 0.0 1.0 0.00 0.00 0.00 81 1002.4
20260509090537 38 0.0 2.0 0.00 0.00 0.00 80 1002.4
20260509085517 38 225 1.0 3.0 0.00 0.00 0.00 80 1002.4
20260509084517 38 225 1.0 3.0 0.00 0.00 0.00 80 1002.4
20260509083517 38 0.0 1.0 0.00 0.00 0.00 78 1002.4
20260509082517 39 0.0 0.0 0.00 0.00 0.00 78 1002.5
20260509081517 39 0.0 0.0 0.00 0.00 0.00 77 1002.6
20260509080537 39 0.0 0.0 0.00 0.00 0.00 77 1002.5
20260509075537 40 0.0 1.0 0.00 0.00 0.00 77 1002.6
20260509074517 40 0.0 1.0 0.00 0.00 0.00 76 1002.6
20260509073517 40 0.0 2.0 0.00 0.00 0.00 75 1002.6
20260509072517 41 225 1.0 2.0 0.00 0.00 0.00 74 1002.6
20260509071517 41 225 1.0 3.0 0.00 0.00 0.00 74 1002.7
20260509070517 41 225 1.0 3.0 0.00 0.00 0.00 72 1002.6
20260509065537 41 225 1.0 2.0 0.00 0.00 0.00 72 1002.6
20260509064638 42 225 1.0 3.0 0.00 0.00 0.00 71 1002.7
20260509063517 42 225 1.0 3.0 0.00 0.00 0.00 70 1002.8
20260509062537 43 225 1.0 3.0 0.00 0.00 0.00 69 1002.8
20260509061537 43 225 1.0 3.0 0.00 0.00 0.00 68 1002.8
20260509060516 43 225 1.0 3.0 0.00 0.00 0.00 67 1003.0
20260509055517 44 225 1.0 3.0 0.00 0.00 0.00 66 1002.9
20260509054537 44 225 1.0 2.0 0.00 0.00 0.00 65 1003.0
20260509053516 44 225 1.0 2.0 0.00 0.00 0.00 65 1002.9
20260509052537 45 225 1.0 3.0 0.00 0.00 0.00 65 1003.0
20260509051517 45 225 1.0 3.0 0.00 0.00 0.00 65 1003.2
20260509050517 45 0.0 2.0 0.00 0.00 0.00 64 1003.2
20260509045516 46 225 1.0 3.0 0.00 0.00 0.00 63 1003.2